COSMOS 2251 DEB, 34451

Orbit data source: Space-Track

COSMOS 2251 DEB, 34451 is space debris in LEO originally from a launch on Wed, 16 Jun 1993 UTC launched from the Plesetsk Missile And Space Complex (PKMTR). The debris from Iridium 33, an American commercial communications satellite, has been tracked extensively since its accidental collision with the defunct Russian satellite Cosmos 2251 in 2009. This event, occurring at high speed in low Earth orbit (LEO), generated thousands of pieces of space debris, significantly increasing the risk of further collisions. The Iridium 33 debris cloud has impacted space traffic management and orbital debris mitigation strategies, making it a subject of ongoing study in space situational awareness.

Loading next visibility...
Identifier
34451, 1993-036SU
Orbit
LEO
Country
Flag of CISCIS
Related business
Manufacturer
Unknown
Mission
Spacecraft
Bus & Motor
Unknown
Mass
Unknown
Launch date (UTC)
1993-06-16 (33 years ago)
Launch vehicle
Unknown
Launch site
Plesetsk Missile And Space Complex (PKMTR)
Object type
Payload
Rocket body
Debris
Shape & HBR
Unknown shape, 0.1 m
Radar Cross Section
Medium (>0.1 m² and <1 m²)

Expand to show TLE details & history
Last TLE update: 11 hours ago

TLE from 11 hours ago
0 COSMOS 2251 DEB
1 34451U 93036SU  26236.49576436  .00035391  00000-0  17902-2 0  9993
2 34451  74.0397 285.1561 0017871 257.3188 102.6010 15.16734782924712
Epoch: 2026-08-24T11:53Z
TLE epoch observation values (Epoch: 2026-08-24T11:53:54.040Z)
Latitude
-0.00003°
Longitude
133.90429°
Altitude
521.134 km
Speed
7.601 km/s
True Right ascension
19h 00m 37s
True Declination
0° 00' 00"
Sunlit
Object was in full shadow at epoch
Visualization orbit readout
Latitude
Unknown
Longitude
Unknown
Altitude
Unknown
Speed
Unknown
Apparent Right ascension
Unknown
Apparent Declination
Unknown
Sunlit
N/A
Visualization observer readout
Local Sidereal Time
13:47:12
Azimuth
Unknown
Elevation
Unknown
Doppler factor
Unknown
Orbital elements
Apogee altitude
525.568 km
Perigee altitude
500.936 km
Semi-major axis
6,891.389 km
Eccentricity
0.00179
Inclination
74.0397°
RAAN
285.1561°
Arg. of periapsis
257.3188°
True anomaly
102.80076°
Mean anomaly
102.601°
Eccentric anomaly
102.70089°
Mean motion
3.79387 °/min
Orbital period
94.89 mins
BSTAR
0.0017902
Loading maneuver chart data...
Computing Atmospheric mass density...

Documentation

Showing up to 5 results
|